Regional Weather Roundup
Issued by NWS

Home | Current Version | Previous Version | Graphics & Text | Print | Product List | Glossary On
Versions: 1 2 3 4 5 6 7 8 9 10 11 12 13 14 15 16 17 18 19 20 21 22 23 24 25 26 27 28 29 30 31 32 33 34 35 36 37 38 39 40 41 42 43 44 45 46 47 48 49 50
000
ASUS45 KBOI 011510
RWRID

IDAHO REGIONAL WEATHER ROUNDUP
NATIONAL WEATHER SERVICE BOISE ID
900 AM MDT SAT AUG 01 2015

NOTE: "FAIR" INDICATES FEW OR NO CLOUDS BELOW 12000 FEET
WITH NO SIGNIFICANT WEATHER AND/OR OBSTRUCTIONS TO VISIBILITY

IDZ012-014-011600-
SOUTHWEST IDAHO


CITY           SKY/WX    TMP DP  RH WIND       PRES   REMARKS
BOISE          SUNNY     79  37  22 SE8       30.04R
CALDWELL       SUNNY     73  39  29 S9        30.04S
MOUNTAIN HOME  SUNNY     73  38  28 SE10      30.06R
$$

IDZ016-017-011600-
SOUTHCENTRAL IDAHO


CITY           SKY/WX    TMP DP  RH WIND       PRES   REMARKS
BURLEY         SUNNY     64  43  46 CALM      30.15R
JEROME         SUNNY     73  31  21 E9        30.14R
TWIN FALLS     SUNNY     76  31  19 CALM      30.13R
$$

IDZ019>023-011600-
SOUTHEAST IDAHO


CITY           SKY/WX    TMP DP  RH WIND       PRES   REMARKS
IDAHO FALLS    SUNNY     62  48  60 NW7       30.21R
POCATELLO      SUNNY     66  37  34 CALM      30.20R
REXBURG        SUNNY     58  44  60 CALM      30.23R
$$

IDZ006-010-011-018-031-032-011600-
CENTRAL IDAHO MOUNTAINS


CITY           SKY/WX    TMP DP  RH WIND       PRES   REMARKS
MCCALL         SUNNY     61  42  49 CALM      30.19S
HAILEY         MOSUNNY   63  37  39 NW12      30.27S
STANLEY          N/A     51  32  48 CALM      30.37S
SALMON         SUNNY     57  43  58 CALM      30.21S
CHALLIS        SUNNY     61  40  45 CALM      30.26S
$$

IDZ002-004-006-007-026-011600-
NORTHERN IDAHO


CITY           SKY/WX    TMP DP  RH WIND       PRES   REMARKS
LEWISTON       SUNNY     74  42  31 E5        29.97S
LOWELL           N/A     61  49  64 CALM      30.06F
COEUR D`ALENE  SUNNY     72  41  33 E6        29.98S
MULLAN PASS    SUNNY     72  23  16 CALM      30.23S
$$



USA.gov is the U.S. government's official web portal to all federal, state and local government web resources and services.